CW5212 Weather Reports


Display with metric or nautical units.
time (UTC)temp
F
wind
direction
speed
MPH
gust
MPH
rain 1hr
in
rain 24hr
in
rain mn
in
humidity
%
barometer
mb
20260901070012 56 108 8.0 15.0 0.00 0.00 0.00 80 943.6
20260901064547 55 153 10.0 18.0 0.00 0.00 0.00 82 943.6
20260901063030 56 146 9.0 17.0 0.00 0.00 0.00 78 943.4
20260901061603 57 139 12.0 18.0 0.00 0.00 0.00 77 943.2
20260901061507 57 111 12.0 18.0 0.00 0.00 0.00 76 943.2
20260901060040 57 124 12.0 18.0 0.00 0.00 0.00 74 943.0
20260901054517 57 144 9.0 14.0 0.00 0.00 0.00 74 942.9
20260901053055 57 132 9.0 15.0 0.00 0.00 0.00 73 943.2
20260901051531 57 171 9.0 16.0 0.00 0.00 0.00 73 943.4
20260901050008 57 127 9.0 16.0 0.00 0.00 0.00 76 943.6
20260901044546 57 131 12.0 21.0 0.00 0.00 0.00 74 943.7
20260901043027 56 119 13.0 20.0 0.00 0.00 0.00 79 943.4
20260901041559 56 118 15.0 22.0 0.00 0.00 0.00 80 943.4
20260901041502 56 103 16.0 22.0 0.00 0.00 0.00 81 943.5
20260901040035 59 113 13.0 23.0 0.00 0.00 0.00 72 943.5
20260901034515 58 84 11.0 16.0 0.00 0.00 0.00 78 943.9
20260901033108 61 117 11.0 29.0 0.00 0.00 0.00 70 943.4
20260901031548 67 176 15.0 25.0 0.00 0.00 0.00 47 943.1
20260901030009 68 123 7.0 13.0 0.00 0.00 0.00 40 942.3
20260901024544 69 121 6.0 11.0 0.00 0.00 0.00 38 942.1
20260901023028 68 127 6.0 10.0 0.00 0.00 0.00 35 942.1
20260901021559 68 94 4.0 10.0 0.00 0.00 0.00 35 942.2
20260901020039 68 110 5.0 9.0 0.00 0.00 0.00 36 942.1
20260901014522 69 102 4.0 11.0 0.00 0.00 0.00 35 942.3
20260901013021 68 82 8.0 13.0 0.00 0.00 0.00 35 942.2
20260901011554 68 86 6.0 13.0 0.00 0.00 0.00 38 942.4
20260901010049 68 80 9.0 17.0 0.00 0.00 0.00 38 942.3
20260901004539 70 92 8.0 17.0 0.00 0.00 0.00 36 942.3
20260901003029 71 136 11.0 20.0 0.00 0.00 0.00 33 942.6
20260901001533 75 94 4.0 6.0 0.00 0.00 0.00 23 942.6
20260901000031 76 55 0.0 4.0 0.00 0.00 0.00 24 942.5
20260831234526 76 5 0.0 3.0 0.00 0.00 0.00 23 942.3
20260831233027 76 277 0.0 5.0 0.00 0.00 0.00 21 942.3
20260831231515 77 319 2.0 8.0 0.00 0.00 0.00 21 942.2
20260831230013 78 341 3.0 11.0 0.00 0.00 0.00 20 942.3
20260831224517 77 309 3.0 16.0 0.00 0.00 0.00 20 942.4
20260831223015 78 253 8.0 13.0 0.00 0.00 0.00 20 942.4
20260831221517 79 163 1.0 14.0 0.00 0.00 0.00 22 942.7
20260831220009 79 244 2.0 8.0 0.00 0.00 0.00 23 942.9
20260831214505 78 176 6.0 9.0 0.00 0.00 0.00 22 943.3
20260831213011 77 154 2.0 11.0 0.00 0.00 0.00 23 943.4
20260831211543 78 157 3.0 11.0 0.00 0.00 0.00 21 943.6
20260831210023 78 123 3.0 8.0 0.00 0.00 0.00 20 943.9
20260831204559 77 91 4.0 9.0 0.00 0.00 0.00 21 944.1
20260831203043 77 277 2.0 9.0 0.00 0.00 0.00 20 944.4
20260831201519 76 247 5.0 8.0 0.00 0.00 0.00 20 944.7
20260831200051 76 263 8.0 13.0 0.00 0.00 0.00 21 945.0
20260831194531 75 111 2.0 9.0 0.00 0.00 0.00 21 945.3
20260831193009 74 151 3.0 10.0 0.00 0.00 0.00 22 945.6
20260831191556 74 125 6.0 11.0 0.00 0.00 0.00 21 945.9
20260831190021 73 62 7.0 13.0 0.00 0.00 0.00 21 946.2
20260831184559 73 101 8.0 12.0 0.00 0.00 0.00 21 946.3
20260831184500 73 99 6.0 12.0 0.00 0.00 0.00 21 946.4
20260831183036 72 176 7.0 11.0 0.00 0.00 0.00 21 946.6
20260831181515 72 119 8.0 12.0 0.00 0.00 0.00 20 946.8
20260831180048 71 85 5.0 11.0 0.00 0.00 0.00 20 946.8
20260831174529 70 153 7.0 12.0 0.00 0.00 0.00 20 946.9
20260831173009 70 150 4.0 10.0 0.00 0.00 0.00 20 947.0
20260831171543 68 109 6.0 11.0 0.00 0.00 0.00 18 947.1
20260831170025 68 116 2.0 8.0 0.00 0.00 0.00 20 947.1
20260831164608 68 169 5.0 10.0 0.00 0.00 0.00 21 947.1
20260831163040 67 17 3.0 10.0 0.00 0.00 0.00 18 947.0
20260831161514 67 62 6.0 10.0 0.00 0.00 0.00 16 946.9
20260831160055 67 56 3.0 6.0 0.00 0.00 0.00 20 947.1
20260831154535 66 11 0.0 5.0 0.00 0.00 0.00 21 947.2
20260831153012 65 59 1.0 5.0 0.00 0.00 0.00 19 947.3
20260831151556 64 94 2.0 7.0 0.00 0.00 0.00 20 947.4
20260831150034 62 66 3.0 5.0 0.00 0.00 0.00 21 947.5
20260831144523 61 70 3.0 5.0 0.00 0.00 0.00 23 947.5
20260831143013 60 64 1.0 4.0 0.00 0.00 0.00 24 947.5
20260831141603 59 33 1.0 4.0 0.00 0.00 0.00 23 947.6
20260831140050 57 22 2.0 5.0 0.00 0.00 0.00 23 947.6
20260831134553 55 23 2.0 4.0 0.00 0.00 0.00 23 947.6
20260831133051 55 32 3.0 8.0 0.00 0.00 0.00 23 947.5
20260831131555 54 19 2.0 4.0 0.00 0.00 0.00 23 947.4
20260831130010 52 13 3.0 5.0 0.00 0.00 0.00 25 947.3
20260831124607 53 53 1.0 3.0 0.00 0.00 0.00 23 947.4
20260831124504 53 360 1.0 3.0 0.00 0.00 0.00 23 947.4
20260831123043 55 23 1.0 4.0 0.00 0.00 0.00 22 947.4
20260831121541 55 13 0.0 4.0 0.00 0.00 0.00 21 947.3
20260831120049 56 49 2.0 4.0 0.00 0.00 0.00 20 947.3
20260831114554 56 35 2.0 4.0 0.00 0.00 0.00 20 947.3
20260831113047 56 46 1.0 2.0 0.00 0.00 0.00 19 947.3
20260831111547 56 42 1.0 3.0 0.00 0.00 0.00 20 947.4
20260831110050 55 22 2.0 4.0 0.00 0.00 0.00 21 947.3
20260831104601 56 24 2.0 4.0 0.00 0.00 0.00 20 947.4
20260831103103 57 232 1.0 4.0 0.00 0.00 0.00 20 947.4
20260831101557 57 202 2.0 5.0 0.00 0.00 0.00 21 947.3
20260831100058 56 200 2.0 3.0 0.00 0.00 0.00 22 947.4
20260831100003 56 200 2.0 4.0 0.00 0.00 0.00 22 947.4
20260831094506 56 221 1.0 4.0 0.00 0.00 0.00 21 947.3
20260831093014 56 251 2.0 3.0 0.00 0.00 0.00 22 947.1
20260831091512 56 267 3.0 6.0 0.00 0.00 0.00 22 947.2
20260831090011 58 245 1.0 4.0 0.00 0.00 0.00 17 947.4
20260831084510 57 225 2.0 3.0 0.00 0.00 0.00 17 947.3
20260831083054 57 215 0.0 5.0 0.00 0.00 0.00 19 947.5
20260831081531 56 211 1.0 6.0 0.00 0.00 0.00 20 947.6
20260831080004 56 209 3.0 4.0 0.00 0.00 0.00 20 947.6
20260831074541 56 201 1.0 4.0 0.00 0.00 0.00 21 947.7
20260831073020 56 233 1.0 4.0 0.00 0.00 0.00 21 947.7
20260831071557 56 201 2.0 7.0 0.00 0.00 0.00 21 947.9